Regional Weather Roundup
Issued by NWS

Home | Current Version | Previous Version | Text Only | Print | Product List | Glossary Off
Versions: 1 2 3 4 5 6 7 8 9 10 11 12 13 14 15 16 17 18 19 20 21 22 23 24 25 26 27 28 29 30 31 32 33 34 35 36 37 38 39 40 41 42 43 44 45 46 47 48 49 50

000
ASUS43 KOAX 221210
RWRNE

WEATHER ROUNDUP FOR NEBRASKA
NATIONAL WEATHER SERVICE OMAHA NE
600 AM CST SAT NOV 22 2014

NOTES: SATELLITE DATA IS BEING USED TO AUGMENT CLOUD COVER ABOVE
       12000 FEET.
       "FAIR" INDICATES FEW OR NO CLOUDS BELOW 12,000 FEET WITH NO
       SIGNIFICANT WEATHER AND/OR OBSTRUCTIONS TO VISIBILITY.

  * THESE STATIONS DO NOT REPORT WEATHER SUCH AS RAIN...SNOW OR FOG.

NEZ001>004-019>022-054>056-221300-
NEBRASKA PANHANDLE

CITY           SKY/WX    TMP DP  RH WIND       PRES   REMARKS
SCOTTSBLUFF    PTCLDY    24  18  77 E8        29.76F WCI  15
6HR MIN TEMP:  20; 6HR MAX TEMP:  26;

ALLIANCE       CLEAR     23  17  78 CALM      29.74F
6HR MIN TEMP:  16; 6HR MAX TEMP:  23;

CHADRON        CLEAR     31  22  69 SW7       29.66F WCI  24
6HR MIN TEMP:  24; 6HR MAX TEMP:  33;

KIMBALL        CLEAR     29  19  67 SW9       29.77F WCI  20
SIDNEY         CLEAR     27  19  72 SW12      29.79F WCI  17
6HR MIN TEMP:  22; 6HR MAX TEMP:  29;

$$

NEZ057>060-069>072-079>082-221300-
SOUTHWEST NEBRASKA

CITY           SKY/WX    TMP DP  RH WIND       PRES   REMARKS
NORTH PLATTE   PTCLDY    15  13  91 NW3       29.83S
6HR MIN TEMP:  15; 6HR MAX TEMP:  34;

IMPERIAL       CLEAR     24  16  71 SW6       29.84F WCI  17
6HR MIN TEMP:  22; 6HR MAX TEMP:  32;

LEXINGTON      FOG       19  18  93 NW3       29.83F VSB 1/2
MCCOOK         CLEAR     24  19  81 W8        29.85F WCI  15
6HR MIN TEMP:  24; 6HR MAX TEMP:  33;

OGALLALA       CLEAR     21  18  91 SW5       29.81F WCI  14
$$

NEZ005>010-023>029-035>040-094-221300-
NORTH CENTRAL NEBRASKA

CITY           SKY/WX    TMP DP  RH WIND       PRES   REMARKS
VALENTINE      CLEAR     25  21  85 SW8       29.72F WCI  16
6HR MIN TEMP:  21; 6HR MAX TEMP:  29;

AINSWORTH      CLEAR     31  24  74 SW7       29.72F WCI  24
BROKEN BOW     CLEAR     28  24  85 CALM      29.79F
6HR MIN TEMP:  24; 6HR MAX TEMP:  33;

O`NEILL        CLEAR     32  30  92 SW7       29.75F WCI  25
ORD            FOG       23  22  96 CALM      29.79F VSB 1/4
6HR MIN TEMP:  22; 6HR MAX TEMP:  33;

THEDFORD       CLEAR     31  24  77 W5        29.76F WCI  26
$$

NEZ041-046>049-061>064-073>077-083>087-221300-
SOUTH CENTRAL NEBRASKA

CITY           SKY/WX    TMP DP  RH WIND       PRES   REMARKS
GRAND ISLAND   FOG      N/A N/A N/A S13       29.85F VSB 3/4
AURORA         FOG       36  36 100 SW15      29.86S VSB 1/2 WCI  26
HASTINGS       FOG       35  34  96 SW7       29.86S VSB 1/2 WCI  29
6HR MIN TEMP:  31; 6HR MAX TEMP:  36;

HEBRON         FOG       38  36  93 SW8       29.90F VSB 3/4 WCI  32
HOLDREGE       CLEAR     28  26  96 S3        29.85S FOG
KEARNEY *      CLOUDY    27  25  93 S8        29.86S WCI  18
YORK           HAZE      36  25  64 SW13      29.86F VSB 1/2 WCI  27
$$

NEZ011>018-030>034-042>045-221300-
NORTHEAST NEBRASKA

CITY           SKY/WX    TMP DP  RH WIND       PRES   REMARKS
NORFOLK        PTCLDY    35  34  96 S12       29.81F FOG     WCI  27
6HR MIN TEMP:  35; 6HR MAX TEMP:  37;

ALBION         CLEAR     30  28  90 S5        29.82S FOG     WCI  25
BLAIR          CLOUDY    38  36  91 S10       29.87F FOG     WCI  31
COLUMBUS *     CLOUDY    36  34  93 S13       29.86F WCI  27
FREMONT        CLOUDY    38  37  98 S9        29.88F FOG     WCI  31
TEKAMAH        CLOUDY    38  35  89 S12       29.87F FOG     WCI  30
6HR MIN TEMP:  37; 6HR MAX TEMP:  38;

WAYNE          CLOUDY    37  36  96 S13       29.81F FOG     WCI  28
$$

NEZ050>053-065>068-078-088>093-221300-
SOUTHEAST NEBRASKA

CITY           SKY/WX    TMP DP  RH WIND       PRES   REMARKS
LINCOLN        CLOUDY    39  36  89 S8        29.91F FOG     WCI  33
6HR MIN TEMP:  37; 6HR MAX TEMP:  39;

OMAHA EPPLEY   CLOUDY    38  36  92 S8        29.91F FOG     WCI  32
6HR MIN TEMP:  36; 6HR MAX TEMP:  38;

BEATRICE       CLOUDY    38  38  99 S9        29.90F FOG     WCI  32
FALLS CITY     CLOUDY    43  41  93 S7        29.94F
6HR MIN TEMP:  37; 6HR MAX TEMP:  43; 6HR PCP: TRACE;

NEBRASKA CITY  CLOUDY    40  40  99 SW12      29.92F FOG     WCI  33
PLATTSMOUTH    CLOUDY    38  37  94 S7        29.91S FOG     WCI  33
$$

NEZ044-045-051>053-067-221300-
OMAHA AREA

CITY           SKY/WX    TMP DP  RH WIND       PRES   REMARKS
OMAHA EPPLEY   CLOUDY    38  36  92 S8        29.91F FOG     WCI  32
6HR MIN TEMP:  36; 6HR MAX TEMP:  38;

BLAIR          CLOUDY    38  36  91 S10       29.87F FOG     WCI  31
FREMONT        CLOUDY    38  37  98 S9        29.88F FOG     WCI  31
MILLARD        CLOUDY    39  36  90 CALM      29.90S FOG
OFFUTT AFB     CLOUDY    38  36  92 S5        29.90F WCI  35
PLATTSMOUTH    CLOUDY    38  37  94 S7        29.91S FOG     WCI  33
WAHOO          CLOUDY    38  35  90 SW9       29.88F FOG     WCI  31
$$


USA.gov is the U.S. government's official web portal to all federal, state and local government web resources and services.